Find Starlink 30819

NORAD ID: 58179 Int'l Des: 2023-167 Owner: SPXS Country: US Constellation: starlink operational
LEOCIRCULAR

Current View

Loading 3D Globe...

About Starlink 30819

Starlink 30819 (NORAD 58179) is a starlink constellation satellite (v2 mini) launched Oct 30, 2023 by SPXS of US. It operates in LEO, CIRCULAR orbit with a mass of 730.00 kg.

Upcoming Passes

Passes for default location (London). Set your location on the main map for personalized predictions.

Altitude History

Loading altitude history...

Two-Line Element Set

1 58179U 23167E 26262.02916101 .00000163 00000-0 15448-4 0 9993
2 58179 43.0038 131.5433 0001317 277.0271 83.0431 15.27577618160553
Epoch: Sep 19, 2026 • Age: 54 hours

Current Status

Altitude 489.7 km
Apogee / Perigee N/A
Velocity 7.62 km/s
Sub-Earth Point -27.30°S, 133.36°W
Launch Date Oct 30, 2023
Age 2.8 years
Type internet

Technical Details

Classification Payload
Mass 730.00 kg
Dry Mass 700.00 kg
Length 0.30 m
Span 29.00 m
Shape ? Box + pan
Manufacturer SPXS
Bus Type Starlink V2M
Phase Status In Orbit
Owner/State SPXS/US

Most Searched